Tracking 19170 objects as of 22-May-2018
HD Live streaming from Space Station
objects crossing your sky now

FENGYUN 1C DEB

Track FENGYUN 1C DEB now!
10-day predictions


NORAD ID: 30173
Int'l Code: 1999-025UE
Perigee: 828.5 km
Apogee: 969.6 km
Inclination: 99.2 °
Period: 102.8 minutes
Semi major axis: 7270 km
RCS: 0.031 m2 (small)
Launch date: May 10, 1999
Source: People's Republic of China (PRC)
Launch site: Taiyaun Space Center, China (TSC)

Note: This is SATELLITE DEBRIS
aabbcc
Your satellite tracking list
Your tracking list is empty




NASA's NSSDC Master Catalog

Two Line Element Set (TLE):
1 30173U 99025UE  18141.10834508  .00000485  00000-0  34273-3 0  9992
2 30173  99.1603 179.5885 0097035  35.4422  26.8805 14.00539306578045
Source of the keplerian elements: AFSPC